| time (UTC) | temp F | wind direction | speed knots | gust knots | rain 1hr in | rain 24hr in | rain mn in | humidity % | barometer mb |
| 20260504214824 | 75 | 285 | 1.7 | 13.9 | 0.00 | 0.00 | 0.00 | 33 | 1010.5 |
| 20260504214324 | 75 | 285 | 1.7 | 13.9 | 0.00 | 0.00 | 0.00 | 33 | 1010.5 |
| 20260504213824 | 75 | 285 | 1.7 | 13.9 | 0.00 | 0.00 | 0.00 | 33 | 1010.6 |
| 20260504213323 | 75 | 268 | 1.7 | 13.9 | 0.00 | 0.00 | 0.00 | 33 | 1010.6 |
| 20260504212823 | 76 | 257 | 2.6 | 13.9 | 0.00 | 0.00 | 0.00 | 33 | 1010.6 |
| 20260504212323 | 75 | 268 | 0.9 | 13.9 | 0.00 | 0.00 | 0.00 | 33 | 1010.6 |
| 20260504211823 | 76 | 268 | 1.7 | 13.9 | 0.00 | 0.00 | 0.00 | 33 | 1010.7 |
| 20260504211323 | 76 | 237 | 0.9 | 13.9 | 0.00 | 0.00 | 0.00 | 33 | 1010.7 |
| 20260504210822 | 75 | 261 | 1.7 | 13.9 | 0.00 | 0.00 | 0.00 | 33 | 1010.6 |
| 20260504210322 | 76 | 231 | 0.9 | 13.9 | 0.00 | 0.00 | 0.00 | 33 | 1010.6 |
| 20260504205822 | 76 | 230 | 1.7 | 13.9 | 0.00 | 0.00 | 0.00 | 33 | 1010.6 |
| 20260504205322 | 75 | 216 | 0.9 | 13.9 | 0.00 | 0.00 | 0.00 | 33 | 1010.6 |
| 20260504204822 | 75 | 233 | 1.7 | 13.9 | 0.00 | 0.00 | 0.00 | 33 | 1010.7 |
| 20260504204321 | 76 | 220 | 2.6 | 13.9 | 0.00 | 0.00 | 0.00 | 33 | 1010.7 |
| 20260504203821 | 76 | 245 | 1.7 | 13.9 | 0.00 | 0.00 | 0.00 | 33 | 1010.7 |
| 20260504203321 | 76 | 271 | 2.6 | 13.9 | 0.00 | 0.00 | 0.00 | 33 | 1010.7 |
| 20260504202821 | 75 | 229 | 0.9 | 13.9 | 0.00 | 0.00 | 0.00 | 33 | 1010.7 |
| 20260504202321 | 75 | 226 | 1.7 | 13.9 | 0.00 | 0.00 | 0.00 | 34 | 1010.7 |
| 20260504201821 | 76 | 225 | 2.6 | 13.9 | 0.00 | 0.00 | 0.00 | 32 | 1010.8 |
| 20260504201320 | 76 | 257 | 0.9 | 13.9 | 0.00 | 0.00 | 0.00 | 34 | 1010.8 |
| 20260504200820 | 75 | 216 | 2.6 | 13.9 | 0.00 | 0.00 | 0.00 | 33 | 1010.8 |
| 20260504200320 | 75 | 210 | 1.7 | 13.9 | 0.00 | 0.00 | 0.00 | 33 | 1010.9 |
| 20260504195820 | 75 | 240 | 1.7 | 13.9 | 0.00 | 0.00 | 0.00 | 34 | 1010.9 |
| 20260504195320 | 75 | 218 | 1.7 | 13.9 | 0.00 | 0.00 | 0.00 | 34 | 1010.9 |
| 20260504194820 | 76 | 243 | 4.3 | 13.9 | 0.00 | 0.00 | 0.00 | 34 | 1011.0 |
| 20260504194319 | 76 | 227 | 1.7 | 13.9 | 0.00 | 0.00 | 0.00 | 35 | 1011.0 |
| 20260504193819 | 75 | 155 | 2.6 | 13.9 | 0.00 | 0.00 | 0.00 | 35 | 1011.1 |
| 20260504193319 | 75 | 286 | 4.3 | 13.9 | 0.00 | 0.00 | 0.00 | 35 | 1011.0 |
| 20260504192819 | 75 | 258 | 1.7 | 13.9 | 0.00 | 0.00 | 0.00 | 35 | 1011.1 |
| 20260504192319 | 75 | 208 | 1.7 | 13.9 | 0.00 | 0.00 | 0.00 | 34 | 1011.2 |
| 20260504191819 | 75 | 214 | 1.7 | 13.9 | 0.00 | 0.00 | 0.00 | 35 | 1011.2 |
| 20260504191318 | 75 | 209 | 2.6 | 13.9 | 0.00 | 0.00 | 0.00 | 34 | 1011.3 |
| 20260504190818 | 75 | 225 | 1.7 | 13.9 | 0.00 | 0.00 | 0.00 | 34 | 1011.3 |
| 20260504190318 | 75 | 211 | 5.2 | 13.9 | 0.00 | 0.00 | 0.00 | 35 | 1011.5 |
| 20260504185818 | 74 | 222 | 0.9 | 13.9 | 0.00 | 0.00 | 0.00 | 35 | 1011.4 |
| 20260504185318 | 74 | 208 | 2.6 | 13.9 | 0.00 | 0.00 | 0.00 | 35 | 1011.6 |
| 20260504184818 | 74 | 230 | 2.6 | 13.9 | 0.00 | 0.00 | 0.00 | 35 | 1011.7 |
| 20260504184317 | 74 | 261 | 1.7 | 13.9 | 0.00 | 0.00 | 0.00 | 35 | 1011.7 |
| 20260504183817 | 74 | 292 | 2.6 | 13.9 | 0.00 | 0.00 | 0.00 | 34 | 1011.7 |
| 20260504183317 | 74 | 282 | 1.7 | 13.9 | 0.00 | 0.00 | 0.00 | 35 | 1011.9 |
| 20260504182817 | 74 | 240 | 2.6 | 13.9 | 0.00 | 0.00 | 0.00 | 34 | 1011.8 |
| 20260504182317 | 74 | 223 | 1.7 | 13.9 | 0.00 | 0.00 | 0.00 | 35 | 1011.8 |
| 20260504181817 | 74 | 237 | 2.6 | 13.9 | 0.00 | 0.00 | 0.00 | 34 | 1011.8 |
| 20260504181316 | 74 | 114 | 0.9 | 13.9 | 0.00 | 0.00 | 0.00 | 35 | 1011.9 |
| 20260504180816 | 73 | 208 | 1.7 | 13.9 | 0.00 | 0.00 | 0.00 | 35 | 1012.1 |
| 20260504180316 | 74 | 264 | 4.3 | 13.9 | 0.00 | 0.00 | 0.00 | 35 | 1012.1 |
| 20260504175816 | 74 | 224 | 1.7 | 13.9 | 0.00 | 0.00 | 0.00 | 36 | 1012.1 |
| 20260504175316 | 73 | 232 | 4.3 | 13.9 | 0.00 | 0.00 | 0.00 | 35 | 1012.3 |
| 20260504174816 | 73 | 240 | 5.2 | 13.9 | 0.00 | 0.00 | 0.00 | 36 | 1012.4 |
| 20260504174316 | 73 | 220 | 1.7 | 13.9 | 0.00 | 0.00 | 0.00 | 36 | 1012.3 |
| 20260504173815 | 73 | 238 | 1.7 | 13.9 | 0.00 | 0.00 | 0.00 | 36 | 1012.3 |
| 20260504173315 | 72 | 210 | 1.7 | 13.9 | 0.00 | 0.00 | 0.00 | 36 | 1012.4 |
| 20260504172815 | 72 | 228 | 4.3 | 13.9 | 0.00 | 0.00 | 0.00 | 38 | 1012.5 |
| 20260504172315 | 72 | 215 | 2.6 | 13.9 | 0.00 | 0.00 | 0.00 | 38 | 1012.7 |
| 20260504171815 | 71 | 227 | 2.6 | 13.9 | 0.00 | 0.00 | 0.00 | 38 | 1012.6 |
| 20260504171315 | 72 | 222 | 7.0 | 13.9 | 0.00 | 0.00 | 0.00 | 38 | 1012.6 |
| 20260504170815 | 72 | 281 | 1.7 | 13.9 | 0.00 | 0.00 | 0.00 | 37 | 1012.8 |
| 20260504170314 | 71 | 225 | 0.9 | 13.9 | 0.00 | 0.00 | 0.00 | 38 | 1012.7 |
| 20260504160313 | 69 | 282 | 2.6 | 12.2 | 0.00 | 0.00 | 0.00 | 37 | 1013.6 |
| 20260504150811 | 68 | 238 | 4.3 | 12.2 | 0.00 | 0.00 | 0.00 | 38 | 1014.3 |
| 20260504150311 | 69 | 243 | 2.6 | 12.2 | 0.00 | 0.00 | 0.00 | 39 | 1014.2 |
| 20260504141309 | 66 | 257 | 2.6 | 12.2 | 0.00 | 0.00 | 0.00 | 45 | 1014.5 |
| 20260504140809 | 66 | 222 | 2.6 | 12.2 | 0.00 | 0.00 | 0.00 | 46 | 1014.6 |
| 20260504140309 | 66 | 223 | 2.6 | 12.2 | 0.00 | 0.00 | 0.00 | 46 | 1014.6 |
| 20260504130807 | 62 | 280 | 1.7 | 8.7 | 0.00 | 0.00 | 0.00 | 52 | 1015.3 |
| 20260504130307 | 62 | 150 | 1.7 | 8.7 | 0.00 | 0.00 | 0.00 | 54 | 1015.3 |
| 20260504120305 | 57 | 190 | 0.9 | 7.8 | 0.00 | 0.00 | 0.00 | 62 | 1015.4 |
| 20260504110303 | 50 | 223 | 0.9 | 7.8 | 0.00 | 0.00 | 0.00 | 70 | 1015.7 |
| 20260504100301 | 48 | 211 | 0.9 | 7.8 | 0.00 | 0.00 | 0.00 | 71 | 1015.5 |
| 20260504081758 | 49 | 236 | 0.0 | 5.2 | 0.00 | 0.00 | 0.00 | 60 | 1015.1 |
| 20260504081258 | 49 | 234 | 0.0 | 5.2 | 0.00 | 0.00 | 0.00 | 60 | 1015.1 |
| 20260504080758 | 50 | 223 | 0.9 | 5.2 | 0.00 | 0.00 | 0.00 | 59 | 1015.1 |
| 20260504080257 | 50 | 212 | 0.9 | 5.2 | 0.00 | 0.00 | 0.00 | 59 | 1015.1 |
| 20260504070256 | 49 | 234 | 0.9 | 5.2 | 0.00 | 0.00 | 0.00 | 58 | 1014.9 |
| 20260504050752 | 50 | 203 | 0.0 | 1.7 | 0.00 | 0.00 | 0.00 | 55 | 1014.5 |
| 20260504050252 | 50 | 203 | 0.0 | 1.7 | 0.00 | 0.00 | 0.00 | 56 | 1014.5 |
| 20260504045752 | 50 | 203 | 0.0 | 1.7 | 0.00 | 0.00 | 0.00 | 55 | 1014.5 |
| 20260504045251 | 50 | 203 | 0.0 | 1.7 | 0.00 | 0.00 | 0.00 | 55 | 1014.4 |
| 20260504044751 | 50 | 200 | 0.0 | 1.7 | 0.00 | 0.00 | 0.00 | 55 | 1014.5 |
| 20260504044251 | 50 | 215 | 0.0 | 1.7 | 0.00 | 0.00 | 0.00 | 55 | 1014.4 |
| 20260504043751 | 51 | 215 | 0.0 | 1.7 | 0.00 | 0.00 | 0.00 | 55 | 1014.4 |
| 20260504043251 | 51 | 213 | 0.0 | 1.7 | 0.00 | 0.00 | 0.00 | 55 | 1014.3 |
| 20260504042751 | 51 | 213 | 0.0 | 1.7 | 0.00 | 0.00 | 0.00 | 55 | 1014.4 |
| 20260504042251 | 51 | 213 | 0.0 | 1.7 | 0.00 | 0.00 | 0.00 | 55 | 1014.3 |
| 20260504041750 | 51 | 213 | 0.0 | 1.7 | 0.00 | 0.00 | 0.00 | 55 | 1014.2 |
| 20260504041250 | 51 | 213 | 0.0 | 1.7 | 0.00 | 0.00 | 0.00 | 54 | 1014.3 |
| 20260504040750 | 51 | 210 | 0.0 | 1.7 | 0.00 | 0.00 | 0.00 | 55 | 1014.2 |
| 20260504040250 | 51 | 225 | 0.0 | 1.7 | 0.00 | 0.00 | 0.00 | 55 | 1014.2 |
| 20260504035750 | 51 | 225 | 0.0 | 14.8 | 0.00 | 0.00 | 0.00 | 54 | 1014.1 |
| 20260504035250 | 51 | 225 | 0.0 | 14.8 | 0.00 | 0.00 | 0.00 | 54 | 1014.1 |
| 20260504034749 | 51 | 225 | 0.0 | 14.8 | 0.00 | 0.00 | 0.00 | 53 | 1014.0 |
| 20260504034249 | 51 | 218 | 0.0 | 14.8 | 0.00 | 0.00 | 0.00 | 53 | 1014.1 |
| 20260504033749 | 52 | 218 | 0.0 | 14.8 | 0.00 | 0.00 | 0.00 | 52 | 1014.1 |
| 20260504033249 | 52 | 218 | 0.0 | 14.8 | 0.00 | 0.00 | 0.00 | 52 | 1014.1 |
| 20260504032749 | 52 | 218 | 0.0 | 14.8 | 0.00 | 0.00 | 0.00 | 52 | 1014.0 |
| 20260504032249 | 52 | 218 | 0.0 | 14.8 | 0.00 | 0.00 | 0.00 | 52 | 1013.9 |
| 20260504031748 | 52 | 218 | 0.0 | 14.8 | 0.00 | 0.00 | 0.00 | 52 | 1013.9 |
| 20260504031248 | 52 | 219 | 0.0 | 14.8 | 0.00 | 0.00 | 0.00 | 52 | 1013.8 |
| 20260504030748 | 52 | 219 | 0.0 | 14.8 | 0.00 | 0.00 | 0.00 | 52 | 1013.8 |
| 20260504030248 | 52 | 219 | 0.0 | 14.8 | 0.00 | 0.00 | 0.00 | 52 | 1013.8 |
| 20260504025748 | 52 | 186 | 0.0 | 14.8 | 0.00 | 0.00 | 0.00 | 53 | 1013.9 |
| 20260504025247 | 51 | 186 | 0.0 | 14.8 | 0.00 | 0.00 | 0.00 | 53 | 1013.9 |
| 20260504024747 | 52 | 350 | 0.0 | 14.8 | 0.00 | 0.00 | 0.00 | 54 | 1013.9 |
| 20260504024247 | 52 | 350 | 0.0 | 14.8 | 0.00 | 0.00 | 0.00 | 54 | 1013.9 |
| 20260504023747 | 52 | 350 | 0.0 | 14.8 | 0.00 | 0.00 | 0.00 | 53 | 1013.9 |
| 20260504023247 | 52 | 350 | 0.0 | 14.8 | 0.00 | 0.00 | 0.00 | 53 | 1014.0 |
| 20260504022747 | 52 | 350 | 0.0 | 14.8 | 0.00 | 0.00 | 0.00 | 53 | 1013.9 |
| 20260504022247 | 52 | 350 | 0.0 | 14.8 | 0.00 | 0.00 | 0.00 | 52 | 1013.8 |
| 20260504021746 | 52 | 350 | 0.0 | 14.8 | 0.00 | 0.00 | 0.00 | 52 | 1013.9 |
| 20260504021246 | 53 | 350 | 0.0 | 14.8 | 0.00 | 0.00 | 0.00 | 51 | 1013.9 |
| 20260504020746 | 53 | 350 | 0.0 | 14.8 | 0.00 | 0.00 | 0.00 | 50 | 1013.9 |
| 20260504020246 | 53 | 350 | 0.0 | 14.8 | 0.00 | 0.00 | 0.00 | 48 | 1013.9 |
| 20260504015746 | 53 | 350 | 0.0 | 14.8 | 0.00 | 0.00 | 0.00 | 48 | 1013.9 |
| 20260504015246 | 53 | 350 | 0.0 | 14.8 | 0.00 | 0.00 | 0.00 | 47 | 1013.9 |
| 20260504014746 | 54 | 350 | 0.0 | 14.8 | 0.00 | 0.00 | 0.00 | 47 | 1013.8 |
| 20260504014245 | 54 | 350 | 0.0 | 14.8 | 0.00 | 0.00 | 0.00 | 47 | 1013.8 |
| 20260504013745 | 54 | 350 | 0.0 | 14.8 | 0.00 | 0.00 | 0.00 | 46 | 1013.7 |
| 20260504013245 | 54 | 350 | 0.0 | 14.8 | 0.00 | 0.00 | 0.00 | 46 | 1013.6 |
| 20260504012745 | 55 | 350 | 0.0 | 14.8 | 0.00 | 0.00 | 0.00 | 44 | 1013.6 |
| 20260504012245 | 55 | 350 | 0.0 | 14.8 | 0.00 | 0.00 | 0.00 | 43 | 1013.5 |
| 20260504011745 | 56 | 350 | 0.0 | 14.8 | 0.00 | 0.00 | 0.00 | 42 | 1013.5 |
| 20260504011245 | 56 | 350 | 0.0 | 14.8 | 0.00 | 0.00 | 0.00 | 42 | 1013.5 |
| 20260504010744 | 56 | 350 | 0.0 | 14.8 | 0.00 | 0.00 | 0.00 | 41 | 1013.4 |
| 20260504010244 | 56 | 350 | 0.0 | 14.8 | 0.00 | 0.00 | 0.00 | 41 | 1013.3 |
| 20260504005744 | 57 | 350 | 0.0 | 14.8 | 0.00 | 0.00 | 0.00 | 40 | 1013.3 |
| 20260504005244 | 57 | 350 | 0.0 | 14.8 | 0.00 | 0.00 | 0.00 | 40 | 1013.2 |
| 20260504004744 | 57 | 350 | 0.9 | 14.8 | 0.00 | 0.00 | 0.00 | 39 | 1013.2 |
| 20260504004244 | 57 | 285 | 0.9 | 14.8 | 0.00 | 0.00 | 0.00 | 39 | 1013.1 |
| 20260504003744 | 57 | 277 | 0.0 | 14.8 | 0.00 | 0.00 | 0.00 | 39 | 1013.0 |
| 20260504003243 | 57 | 288 | 0.0 | 14.8 | 0.00 | 0.00 | 0.00 | 39 | 1012.9 |
| 20260504002743 | 57 | 217 | 0.0 | 14.8 | 0.00 | 0.00 | 0.00 | 39 | 1012.8 |
| 20260504002243 | 57 | 217 | 0.0 | 14.8 | 0.00 | 0.00 | 0.00 | 39 | 1012.7 |
| 20260504001743 | 57 | 212 | 0.0 | 14.8 | 0.00 | 0.00 | 0.00 | 38 | 1012.5 |
| 20260504001243 | 57 | 210 | 0.0 | 14.8 | 0.00 | 0.00 | 0.00 | 38 | 1012.5 |
| 20260504000742 | 58 | 210 | 0.9 | 14.8 | 0.00 | 0.00 | 0.00 | 37 | 1012.3 |
| 20260504000242 | 58 | 210 | 0.0 | 14.8 | 0.00 | 0.00 | 0.00 | 37 | 1012.4 |
| 20260503235742 | 58 | 198 | 0.0 | 14.8 | 0.00 | 0.00 | 0.00 | 36 | 1012.3 |
| 20260503235242 | 58 | 274 | 0.0 | 14.8 | 0.00 | 0.00 | 0.00 | 36 | 1012.3 |
| 20260503234742 | 59 | 274 | 0.0 | 14.8 | 0.00 | 0.00 | 0.00 | 36 | 1012.3 |
| 20260503234241 | 59 | 265 | 0.0 | 14.8 | 0.00 | 0.00 | 0.00 | 35 | 1012.3 |
| 20260503233741 | 59 | 107 | 0.9 | 14.8 | 0.00 | 0.00 | 0.00 | 35 | 1012.2 |
| 20260503233241 | 59 | 261 | 0.0 | 14.8 | 0.00 | 0.00 | 0.00 | 34 | 1012.2 |
| 20260503232741 | 59 | 268 | 0.0 | 14.8 | 0.00 | 0.00 | 0.00 | 34 | 1012.1 |
| 20260503232241 | 60 | 273 | 2.6 | 14.8 | 0.00 | 0.00 | 0.00 | 33 | 1012.1 |
| 20260503231741 | 60 | 274 | 0.9 | 14.8 | 0.00 | 0.00 | 0.00 | 33 | 1012.1 |
| 20260503231241 | 60 | 251 | 1.7 | 14.8 | 0.00 | 0.00 | 0.00 | 33 | 1012.0 |
| 20260503230740 | 60 | 300 | 1.7 | 14.8 | 0.00 | 0.00 | 0.00 | 33 | 1012.0 |
| 20260503230240 | 60 | 205 | 0.9 | 14.8 | 0.00 | 0.00 | 0.00 | 33 | 1011.9 |
| 20260503225740 | 61 | 283 | 1.7 | 14.8 | 0.00 | 0.00 | 0.00 | 32 | 1012.0 |
| 20260503225240 | 61 | 274 | 0.9 | 14.8 | 0.00 | 0.00 | 0.00 | 32 | 1012.0 |
| 20260503224740 | 61 | 282 | 0.9 | 14.8 | 0.00 | 0.00 | 0.00 | 32 | 1011.9 |
| 20260503224240 | 61 | 253 | 0.9 | 14.8 | 0.00 | 0.00 | 0.00 | 31 | 1011.9 |
| 20260503223740 | 61 | 239 | 0.9 | 14.8 | 0.00 | 0.00 | 0.00 | 31 | 1011.8 |
| 20260503223239 | 62 | 237 | 0.9 | 14.8 | 0.00 | 0.00 | 0.00 | 30 | 1011.8 |
| 20260503222739 | 62 | 269 | 0.9 | 14.8 | 0.00 | 0.00 | 0.00 | 30 | 1011.8 |
| 20260503222239 | 62 | 289 | 1.7 | 14.8 | 0.00 | 0.00 | 0.00 | 29 | 1011.7 |
| 20260503221739 | 63 | 282 | 2.6 | 14.8 | 0.00 | 0.00 | 0.00 | 29 | 1011.7 |
| 20260503221239 | 63 | 284 | 0.0 | 14.8 | 0.00 | 0.00 | 0.00 | 30 | 1011.6 |
| 20260503220739 | 63 | 283 | 0.9 | 14.8 | 0.00 | 0.00 | 0.00 | 28 | 1011.8 |
| 20260503220239 | 63 | 283 | 4.3 | 14.8 | 0.00 | 0.00 | 0.00 | 28 | 1011.8 |
| 20260503215738 | 62 | 259 | 0.9 | 14.8 | 0.00 | 0.00 | 0.00 | 29 | 1011.8 |
| 20260503215238 | 62 | 278 | 1.7 | 14.8 | 0.00 | 0.00 | 0.00 | 29 | 1011.8 |